VR2HK-13 Weather Reports


time (UTC)temp
C
wind
direction
speed
KPH
gust
KPH
rain 1hr
cm
rain 24hr
cm
rain mn
cm
humidity
%
barometer
mb
20260504081944 25 56 9.7 24.1 0.25 1.22 0.00 75 1014.6
20260504081736 25 50 0.0 24.1 0.28 1.22 0.00 75 1014.6
20260504081445 25 113 3.2 14.5 0.30 1.24 0.00 74 1014.5
20260504081226 25 57 3.2 16.1 0.36 1.24 0.00 74 1014.6
20260504080944 25 69 8.0 16.1 0.36 1.24 0.00 74 1014.7
20260504080716 25 81 1.6 14.5 0.28 1.19 0.00 74 1014.8
20260504080444 25 360 1.6 14.5 0.28 1.17 0.00 74 1014.8
20260504080206 25 46 4.8 12.9 0.25 1.12 0.00 74 1014.9
20260504050625 27 27 17.7 30.6 0.10 2.59 0.00 62 1015.9
20260504050442 27 41 12.9 24.1 0.10 2.67 0.00 62 1015.9
20260504045943 27 339 12.9 22.5 0.05 2.77 0.00 63 1015.9
20260504045605 27 360 4.8 29.0 0.05 2.92 0.00 64 1015.8
20260504045443 27 55 12.9 29.0 0.05 3.00 0.00 64 1015.9
20260504045054 27 14 1.6 20.9 0.05 3.07 0.00 64 1016.0
20260504044943 27 31 8.0 20.9 0.05 3.10 0.00 65 1016.0
20260504044544 27 51 4.8 30.6 0.05 3.23 0.00 65 1016.0
20260504044443 26 33 8.0 30.6 0.05 3.23 0.00 65 1016.0
20260504044034 26 38 8.0 35.4 0.05 3.48 0.00 66 1016.0
20260504043942 26 356 3.2 35.4 0.05 3.48 0.00 66 1016.0
20260504043524 27 204 8.0 19.3 0.03 3.68 0.00 65 1015.9
20260504043443 27 127 11.3 19.3 0.03 3.68 0.00 65 1015.9
20260504043015 27 266 4.8 11.3 0.03 3.91 0.00 66 1015.8
20260504042943 27 246 4.8 11.3 0.03 3.91 0.00 66 1015.8
20260504042505 27 56 3.2 12.9 0.05 4.11 0.00 65 1015.8
20260504042442 27 43 3.2 12.9 0.05 4.27 0.00 65 1015.8
20260504041954 27 265 9.7 14.5 0.05 4.39 0.00 66 1016.0
20260504041943 27 253 8.0 14.5 0.05 4.45 0.00 66 1015.9
20260504041445 26 314 8.0 16.1 0.05 4.67 0.00 66 1015.9
20260504041442 26 265 8.0 16.1 0.05 4.67 0.00 66 1015.9
20260504040943 26 44 3.2 16.1 0.05 4.98 0.00 67 1016.1
20260504040934 26 23 3.2 16.1 0.05 4.98 0.00 67 1016.2
20260504040443 26 25 4.8 12.9 0.03 5.11 0.00 68 1016.2
20260504040423 26 63 1.6 12.9 0.03 5.11 0.00 68 1016.2
20260504035942 26 5 9.7 16.1 0.03 5.31 0.00 67 1016.2
20260504035443 26 33 4.8 9.7 0.05 5.66 0.00 68 1016.2
20260504035404 26 35 4.8 9.7 0.05 5.66 0.00 68 1016.2
20260504034942 26 79 4.8 12.9 0.05 6.02 0.00 67 1016.3
20260504034853 26 68 8.0 12.9 0.05 6.02 0.00 67 1016.3
20260504034442 26 301 1.6 4.8 0.05 6.32 0.00 67 1016.3
20260504034344 26 110 1.6 4.8 0.05 6.32 0.00 68 1016.3
20260504033943 26 110 1.6 9.7 0.05 6.38 0.00 68 1016.2
20260504033834 26 300 6.4 9.7 0.05 6.43 0.00 67 1016.2
20260504033442 26 205 6.4 9.7 0.05 6.55 0.00 67 1016.3
20260504033323 26 176 1.6 6.4 0.05 6.55 0.00 68 1016.3
20260504032942 26 36 3.2 12.9 0.05 6.71 0.00 68 1016.3
20260504032814 26 31 1.6 12.9 0.05 6.71 0.00 68 1016.2
20260504032443 26 29 3.2 14.5 0.03 6.96 0.00 67 1016.2
20260504032304 26 27 9.7 14.5 0.05 7.01 0.00 67 1016.2
20260504031942 26 303 1.6 17.7 0.05 7.21 0.00 68 1016.2
20260504031753 26 349 4.8 19.3 0.05 7.24 0.00 68 1016.2
20260504031442 26 27 11.3 19.3 0.05 7.54 0.00 67 1016.2
20260504031244 26 117 8.0 16.1 0.05 7.72 0.00 68 1016.4
20260504030942 26 10 8.0 16.1 0.05 7.85 0.00 67 1016.6
20260504030733 26 124 4.8 14.5 0.05 7.92 0.00 67 1016.5
20260504030442 26 36 3.2 9.7 0.05 8.13 0.00 67 1016.5
20260504030224 26 54 0.0 11.3 0.05 8.20 0.00 68 1016.6
20260504025942 26 49 3.2 16.1 0.05 8.36 0.00 67 1016.6
20260504025713 26 50 3.2 16.1 0.03 8.46 0.00 66 1016.6
20260504025442 26 54 4.8 14.5 0.03 8.56 0.00 66 1016.5
20260504025204 27 285 8.0 14.5 0.03 8.74 0.00 66 1016.5
20260504024942 27 294 4.8 14.5 0.03 8.97 0.00 66 1016.5
20260504024653 27 351 6.4 16.1 0.03 9.04 0.00 66 1016.5
20260504024442 26 108 4.8 16.1 0.03 9.14 0.00 65 1016.5
20260504024144 27 257 4.8 25.7 0.03 9.37 0.00 67 1016.4
20260504023942 26 46 4.8 25.7 0.03 9.47 0.00 66 1016.4
20260504023633 26 286 4.8 12.9 0.03 9.65 0.00 66 1016.4
20260504023442 26 126 3.2 20.9 0.03 9.73 0.00 67 1016.4
20260504023123 26 83 9.7 20.9 0.03 9.96 0.00 67 1016.4
20260504022942 26 19 12.9 19.3 0.03 10.06 0.00 67 1016.5
20260504022613 26 230 4.8 11.3 0.03 10.31 0.00 67 1016.4
20260504022441 26 352 3.2 11.3 0.03 10.46 0.00 68 1016.5
20260504022103 25 5 4.8 19.3 0.00 10.69 0.00 68 1016.4
20260504021942 25 23 11.3 19.3 0.00 10.77 0.00 68 1016.4
20260504021552 25 85 8.0 22.5 0.00 10.95 0.00 68 1016.3
20260504021441 25 354 8.0 27.4 0.00 11.10 0.00 68 1016.3
20260504021043 25 76 14.5 27.4 0.00 11.23 0.00 67 1016.4
20260504020942 25 30 6.4 19.3 0.00 11.35 0.00 68 1016.4
20260504020533 25 3 9.7 19.3 0.00 11.48 0.00 68 1016.5
20260504020442 25 218 12.9 19.3 0.00 11.51 0.00 68 1016.4
20260504020023 25 345 1.6 19.3 0.00 11.73 0.00 69 1016.4
20260504015941 25 360 4.8 19.3 0.00 11.73 0.00 69 1016.4
20260504015513 25 254 4.8 17.7 0.00 12.01 0.00 68 1016.4
20260504015442 25 237 8.0 17.7 0.00 12.06 0.00 68 1016.3
20260504015003 25 286 3.2 8.0 0.00 12.19 0.00 70 1016.4
20260504014941 25 246 3.2 8.0 0.00 12.27 0.00 70 1016.3
20260504014453 24 56 1.6 19.3 0.00 12.37 0.00 69 1016.5
20260504014443 24 297 1.6 19.3 0.00 12.37 0.00 68 1016.5
20260504013943 25 76 9.7 14.5 0.00 12.67 0.00 68 1016.5
20260504013941 25 67 9.7 14.5 0.00 12.67 0.00 68 1016.5
20260504013441 25 24 9.7 16.1 0.00 12.95 0.00 68 1016.5
20260504013433 25 26 9.7 16.1 0.00 12.95 0.00 68 1016.5
20260504012942 25 244 0.0 9.7 0.00 13.21 0.00 68 1016.2
20260504012923 25 53 1.6 9.7 0.00 13.21 0.00 68 1016.2
20260504012441 25 265 3.2 19.3 0.00 13.54 0.00 67 1016.0
20260504012412 25 319 4.8 19.3 0.00 13.54 0.00 67 1016.0
20260504011941 25 151 8.0 14.5 0.00 13.77 0.00 67 1016.1
20260504011903 25 111 9.7 14.5 0.00 13.77 0.00 67 1016.1
20260504011441 25 221 6.4 22.5 0.00 13.92 0.00 66 1016.0
20260504010941 25 50 6.4 12.9 0.00 14.15 0.00 67 1015.9
20260504010843 25 19 6.4 12.9 0.00 14.17 0.00 66 1015.8
20260504010441 25 183 3.2 29.0 0.00 14.33 0.00 67 1015.7
20260504010332 24 31 4.8 29.0 0.00 14.35 0.00 66 1015.7
20260504005941 25 48 8.0 17.7 0.00 14.58 0.00 66 1015.7
20260504005822 25 89 8.0 17.7 0.00 14.63 0.00 66 1015.7
20260504005442 25 61 6.4 16.1 0.00 14.86 0.00 67 1015.7
20260504005313 25 236 4.8 12.9 0.00 15.01 0.00 67 1015.7
20260504004941 25 254 3.2 11.3 0.00 15.32 0.00 69 1015.7
20260504004802 24 29 8.0 11.3 0.00 15.44 0.00 69 1015.7
20260504004441 24 46 0.0 4.8 0.00 15.75 0.00 69 1015.6
20260504004253 24 351 1.6 6.4 0.00 15.82 0.00 70 1015.7
20260504003941 23 252 1.6 6.4 0.00 15.93 0.00 71 1015.7
20260504003742 23 177 0.0 3.2 0.00 16.00 0.00 71 1015.8
20260504003441 23 89 0.0 4.8 0.00 16.33 0.00 71 1015.8
20260504003233 23 24 0.0 4.8 0.00 16.51 0.00 70 1015.8
20260504002940 23 322 0.0 3.2 0.00 16.66 0.00 70 1015.8
20260504002722 23 214 1.6 8.0 0.00 16.69 0.00 71 1015.8
20260504002441 23 334 3.2 8.0 0.00 16.92 0.00 71 1015.8
20260504002212 23 31 1.6 12.9 0.00 17.02 0.00 71 1015.7
20260504001941 23 25 1.6 16.1 0.00 17.17 0.00 72 1015.6
20260504001702 23 56 9.7 16.1 0.00 17.40 0.00 72 1015.6
20260504001440 23 27 3.2 11.3 0.00 17.63 0.00 73 1015.6
20260504001152 23 293 4.8 8.0 0.00 17.96 0.00 74 1015.6
20260504000941 23 292 4.8 6.4 0.00 18.14 0.00 73 1015.6
20260504000641 23 54 0.0 3.2 0.00 18.31 0.00 72 1015.7
20260504000440 23 8 0.0 1.6 0.00 18.39 0.00 73 1015.5
20260504000132 23 317 0.0 8.0 0.00 18.47 0.00 71 1015.4
20260503235941 23 30 0.0 9.7 0.00 18.47 0.00 70 1015.3
20260503235622 23 106 4.8 14.5 0.00 18.59 0.00 70 1015.4
20260503235441 23 112 6.4 14.5 0.00 18.64 0.00 71 1015.4
20260503235112 22 150 1.6 6.4 0.00 18.77 0.00 72 1015.4
20260503234941 22 178 1.6 6.4 0.00 18.82 0.00 72 1015.4
20260503234602 22 67 3.2 9.7 0.00 18.90 0.00 73 1015.3
20260503234441 22 29 4.8 11.3 0.00 18.95 0.00 74 1015.2
20260503234052 22 255 4.8 14.5 0.00 19.02 0.00 73 1015.2
20260503233940 22 271 9.7 14.5 0.00 19.08 0.00 73 1015.1
20260503233542 22 264 0.0 8.0 0.00 19.15 0.00 73 1014.9
20260503233440 22 39 1.6 8.0 0.00 19.25 0.00 73 1015.0
20260503233032 22 92 1.6 14.5 0.00 19.28 0.00 73 1015.0
20260503232940 22 31 3.2 14.5 0.00 19.30 0.00 73 1015.0
20260503232521 22 45 3.2 6.4 0.00 19.30 0.00 74 1014.9
20260503232440 22 79 1.6 8.0 0.00 19.33 0.00 74 1014.8
20260503232012 22 75 3.2 19.3 0.00 19.35 0.00 74 1014.8
20260503231940 22 53 0.0 20.9 0.00 19.35 0.00 74 1014.8
20260503231502 22 80 12.9 22.5 0.00 19.58 0.00 75 1014.6
20260503231441 22 100 11.3 22.5 0.00 19.58 0.00 75 1014.5
20260503230951 22 20 4.8 16.1 0.00 19.81 0.00 76 1014.6
20260503230940 22 47 6.4 16.1 0.00 19.81 0.00 76 1014.5
20260503230440 22 64 1.6 11.3 0.00 20.02 0.00 76 1014.6
20260503225941 22 39 4.8 9.7 0.00 20.17 0.00 77 1014.3
20260503225931 22 64 6.4 9.7 0.00 20.17 0.00 77 1014.3
20260503225440 21 48 3.2 9.7 0.00 20.35 0.00 78 1014.2
20260503225421 21 64 3.2 9.7 0.00 20.35 0.00 78 1014.3
20260503224940 22 16 1.6 4.8 0.00 20.62 0.00 79 1014.3
20260503224911 22 61 1.6 4.8 0.00 20.62 0.00 79 1014.3
20260503224440 21 60 1.6 4.8 0.00 20.88 0.00 79 1014.2
20260503224402 21 193 1.6 4.8 0.00 20.88 0.00 79 1014.1
20260503223939 21 35 0.0 1.6 0.00 21.01 0.00 80 1014.2
20260503223851 21 41 0.0 1.6 0.00 21.06 0.00 80 1014.2
20260503223440 21 48 1.6 4.8 0.00 21.21 0.00 80 1014.1
20260503223341 21 55 1.6 4.8 0.00 21.23 0.00 80 1014.1
20260503222940 21 26 1.6 9.7 0.00 21.34 0.00 79 1013.9
20260503222832 21 42 1.6 12.9 0.00 21.41 0.00 80 1013.9
20260503222439 21 58 6.4 12.9 0.00 21.46 0.00 81 1013.9
20260503222321 21 66 4.8 12.9 0.00 21.49 0.00 81 1013.9
20260503221940 21 119 6.4 17.7 0.00 21.64 0.00 82 1013.9
20260503221811 21 63 6.4 17.7 0.00 21.67 0.00 83 1013.8
20260503221440 21 57 1.6 4.8 0.00 21.77 0.00 84 1013.8
20260503221301 21 46 0.0 3.2 0.00 21.79 0.00 84 1013.7
20260503220939 21 30 0.0 3.2 0.00 21.92 0.00 84 1013.6
20260503220751 21 67 0.0 1.6 0.00 21.95 0.00 84 1013.6
20260503220440 21 48 0.0 3.2 0.00 21.95 0.00 84 1013.5
20260503220241 21 45 1.6 3.2 0.00 21.97 0.00 84 1013.4
20260503215940 21 19 0.0 3.2 0.00 22.07 0.00 84 1013.3
20260503215731 21 52 0.0 1.6 0.00 22.07 0.00 85 1013.3
20260503215439 21 4 0.0 1.6 0.00 22.12 0.00 85 1013.3
20260503215221 21 17 0.0 1.6 0.00 22.15 0.00 85 1013.2
20260503214940 21 37 1.6 1.6 0.00 22.23 0.00 85 1013.3
20260503214711 21 6 0.0 1.6 0.00 22.23 0.00 85 1013.3
20260503214439 21 31 0.0 1.6 0.00 22.23 0.00 85 1013.3
20260503214201 21 15 1.6 3.2 0.00 22.33 0.00 84 1013.1
20260503213939 21 120 0.0 3.2 0.00 22.33 0.00 85 1013.0
20260503213651 21 39 0.0 3.2 0.00 22.45 0.00 85 1013.0
20260503213440 21 21 0.0 3.2 0.00 22.48 0.00 85 1012.9
20260503213140 21 24 1.6 3.2 0.00 22.53 0.00 85 1012.8
20260503212939 21 96 1.6 3.2 0.00 22.58 0.00 85 1012.8
20260503212631 21 87 0.0 8.0 0.00 22.63 0.00 86 1012.8
20260503212439 21 59 4.8 8.0 0.00 22.76 0.00 86 1012.7
20260503212121 21 49 1.6 3.2 0.00 22.78 0.00 87 1012.7
20260503211940 21 23 1.6 4.8 0.00 22.78 0.00 87 1012.7
20260503211610 21 35 1.6 6.4 0.00 22.91 0.00 87 1012.8
20260503211439 21 101 4.8 6.4 0.00 22.91 0.00 87 1012.7
20260503211101 21 54 3.2 16.1 0.00 22.96 0.00 88 1012.5
20260503210939 21 48 9.7 16.1 0.00 23.04 0.00 87 1012.4
20260503210550 21 40 1.6 3.2 0.00 23.09 0.00 88 1012.4
20260503210440 21 359 0.0 1.6 0.00 23.11 0.00 88 1012.4
20260503210040 21 57 0.0 1.6 0.00 23.16 0.00 88 1012.5
20260503205939 21 56 0.0 0.0 0.00 23.22 0.00 88 1012.4
20260503205531 21 360 0.0 1.6 0.00 23.37 0.00 88 1012.3
20260503205439 21 344 0.0 1.6 0.00 23.37 0.00 88 1012.3
20260503205021 21 46 0.0 1.6 0.00 23.44 0.00 88 1012.1
20260503204940 21 49 0.0 1.6 0.00 23.44 0.00 88 1012.1
20260503204510 21 48 0.0 3.2 0.00 23.57 0.00 88 1012.2
20260503204439 21 53 0.0 3.2 0.00 23.57 0.00 88 1012.1
20260503204000 21 30 0.0 1.6 0.00 23.75 0.00 88 1012.1
20260503203939 21 18 0.0 1.6 0.00 23.75 0.00 88 1012.1
20260503203451 21 29 0.0 1.6 0.00 23.93 0.00 88 1011.9
20260503203438 21 42 0.0 1.6 0.00 23.93 0.00 88 1011.9
20260503202939 21 9 0.0 1.6 0.00 24.08 0.00 88 1012.1
20260503202439 21 82 0.0 1.6 0.00 24.16 0.00 88 1011.9
20260503202430 21 71 0.0 1.6 0.00 24.16 0.00 88 1011.9
20260503201939 21 21 0.0 1.6 0.00 24.36 0.00 88 1012.0
20260503201920 21 30 0.0 1.6 0.00 24.36 0.00 88 1012.0
20260503201438 21 2 0.0 3.2 0.00 24.71 0.00 88 1012.0
20260503201410 21 360 0.0 3.2 0.00 24.77 0.00 88 1012.0
20260503200939 21 38 1.6 4.8 0.00 24.87 0.00 88 1012.0
20260503200900 21 47 3.2 4.8 0.00 24.92 0.00 88 1012.0
20260503200439 21 55 1.6 3.2 0.00 25.07 0.00 88 1012.1
20260503200350 21 42 1.6 4.8 0.00 25.10 0.00 89 1012.1
20260503195939 21 45 1.6 4.8 0.00 25.35 0.00 89 1012.0
20260503195840 21 43 1.6 3.2 0.00 25.37 0.00 89 1012.0
20260503195438 21 24 0.0 3.2 0.00 0.08 0.00 89 1011.9
20260503195330 21 46 0.0 3.2 0.00 0.15 0.00 89 1011.9
20260503194939 21 43 0.0 1.6 0.00 0.28 0.00 89 1011.9
20260503194820 21 31 1.6 1.6 0.00 0.30 0.00 89 1011.9
20260503194439 21 76 0.0 4.8 0.00 0.51 0.00 89 1012.1
20260503194310 21 201 0.0 4.8 0.00 0.56 0.00 89 1012.2
20260503193938 21 128 0.0 6.4 0.00 0.66 0.00 90 1012.2
20260503193800 21 98 4.8 6.4 0.00 0.71 0.00 90 1012.2
20260503193438 21 79 0.0 6.4 0.00 0.97 0.00 90 1012.3
20260503193250 21 87 1.6 6.4 0.00 1.07 0.00 90 1012.3
20260503192939 21 182 3.2 4.8 0.00 1.14 0.00 90 1012.3
20260503192438 21 148 1.6 3.2 0.00 1.30 0.00 90 1012.2
20260503192230 21 197 0.0 4.8 0.00 1.32 0.00 90 1012.2
20260503191939 21 218 1.6 4.8 0.00 1.37 0.00 90 1012.2
20260503191720 21 181 1.6 3.2 0.00 1.55 0.00 90 1012.2
20260503191439 21 213 1.6 1.6 0.00 1.63 0.00 91 1012.2
20260503191209 21 219 0.0 1.6 0.00 1.68 0.00 91 1012.2
20260503190938 21 196 0.0 1.6 0.00 1.68 0.00 91 1012.2
20260503190700 21 232 0.0 1.6 0.00 1.83 0.00 91 1012.2
20260503190439 21 65 1.6 1.6 0.00 1.88 0.00 91 1012.2
20260503190150 21 56 0.0 1.6 0.00 2.03 0.00 91 1012.3
20260503185938 21 150 0.0 1.6 0.00 2.03 0.00 91 1012.3
20260503185640 21 133 0.0 0.0 0.00 2.16 0.00 91 1012.3
20260503185438 21 52 0.0 1.6 0.00 2.21 0.00 91 1012.2
20260503185130 21 23 0.0 1.6 0.00 2.29 0.00 91 1012.4
20260503184939 21 10 0.0 1.6 0.00 2.44 0.00 91 1012.3
20260503184619 21 28 0.0 1.6 0.00 2.57 0.00 91 1012.3
20260503184438 21 59 0.0 1.6 0.00 2.62 0.00 91 1012.3
20260503184110 21 50 0.0 1.6 0.00 2.82 0.00 91 1012.3
20260503183938 21 48 0.0 1.6 0.00 2.82 0.00 91 1012.3
20260503183559 22 2 0.0 1.6 0.00 2.90 0.00 91 1012.4
20260503183438 22 39 0.0 1.6 0.00 2.95 0.00 91 1012.4
20260503183049 22 52 0.0 1.6 0.00 3.12 0.00 91 1012.5
20260503182938 22 65 0.0 1.6 0.00 3.15 0.00 91 1012.4
20260503182540 22 182 0.0 1.6 0.00 3.33 0.00 91 1012.4
20260503182438 22 194 0.0 0.0 0.00 3.43 0.00 91 1012.5
20260503182030 22 58 0.0 1.6 0.00 3.61 0.00 91 1012.6
20260503181938 22 59 0.0 1.6 0.00 3.66 0.00 91 1012.6
20260503181519 22 53 0.0 1.6 0.00 3.99 0.00 91 1012.7
20260503181438 22 35 0.0 1.6 0.00 3.99 0.00 91 1012.7
20260503181010 22 42 0.0 1.6 0.00 4.29 0.00 91 1012.8
20260503180938 22 37 0.0 1.6 0.00 4.29 0.00 91 1012.8
20260503180438 22 167 0.0 1.6 0.00 4.52 0.00 91 1013.0
20260503175949 22 297 0.0 0.0 0.00 4.83 0.00 91 1013.1
20260503175938 22 303 0.0 0.0 0.00 4.83 0.00 91 1013.1
20260503175441 22 300 0.0 0.0 0.00 5.11 0.00 91 1013.1
20260503175438 22 299 0.0 0.0 0.00 5.11 0.00 91 1013.1
20260503174929 22 73 0.0 1.6 0.00 5.36 0.00 91 1013.2
20260503174438 22 44 1.6 1.6 0.00 5.49 0.00 91 1013.3
20260503174419 22 46 1.6 1.6 0.00 5.59 0.00 91 1013.3
20260503173937 22 115 0.0 1.6 0.00 5.84 0.00 91 1013.3
20260503173909 22 195 0.0 1.6 0.00 5.92 0.00 91 1013.3
20260503173437 22 238 0.0 0.0 0.00 6.05 0.00 91 1013.4
20260503173359 22 249 0.0 0.0 0.00 6.17 0.00 91 1013.4
20260503172938 22 247 0.0 1.6 0.00 6.48 0.00 91 1013.5
20260503172849 22 247 0.0 1.6 0.00 6.48 0.00 91 1013.6
20260503172438 22 210 1.6 3.2 0.00 6.71 0.00 91 1013.6
20260503172339 22 220 1.6 3.2 0.00 6.86 0.00 91 1013.6
20260503171937 21 230 1.6 3.2 0.00 7.04 0.00 91 1013.7
20260503171829 21 240 1.6 3.2 0.00 7.19 0.00 91 1013.7
20260503171437 21 21 0.0 0.0 0.00 7.29 0.00 91 1013.8
20260503171319 21 19 0.0 0.0 0.00 7.44 0.00 91 1013.8
20260503170938 21 20 0.0 0.0 0.00 7.57 0.00 91 1013.9
20260503170809 21 19 0.0 0.0 0.00 7.65 0.00 91 1013.9
20260503170437 21 19 0.0 1.6 0.00 7.80 0.00 91 1014.0
20260503150937 22 283 1.6 9.7 0.00 14.63 0.00 91 1014.2
20260503150918 22 274 1.6 9.7 0.00 14.63 0.00 91 1014.2
20260503150436 22 296 0.0 16.1 0.00 14.94 0.00 91 1013.9
20260503150407 22 322 0.0 16.1 0.00 14.99 0.00 91 1014.0
20260503140208 22 201 1.6 6.4 0.00 17.75 0.00 92 1014.3
20260503131027 22 223 1.6 6.4 0.00 20.42 0.00 92 1013.8
20260503130937 22 260 0.0 6.4 0.00 20.50 0.00 92 1013.8
20260503130516 22 315 0.0 8.0 0.00 20.83 0.00 92 1013.7
20260503130435 22 58 3.2 8.0 0.00 20.83 0.00 92 1013.7
20260503110625 22 360 0.0 1.6 0.00 0.56 0.00 92 1012.1
20260503110435 22 316 0.0 6.4 0.00 0.61 0.00 92 1012.0
20260503110116 22 183 3.2 6.4 0.00 0.64 0.00 92 1012.0